This is the latest recevied weather packets stored in our database for station/object OK2ARM-6. If no packets are shown the sender has not sent any weather packets the latest 10 day(s).
| Time | Temp. | Humidity | Pressure | Rain* | Wind** | Luminosity | Snow |
|---|---|---|---|---|---|---|---|
| 1777918904 | 20° C | 100% | 1012.8 hPa | - | - | - | - |
| 1777912017 | 24.44° C | 100% | 1012.8 hPa | - | - | - | - |
| 1777911416 | 25.56° C | 100% | 1012.8 hPa | - | - | - | - |
| 1777907527 | 25.56° C | 100% | 1012.9 hPa | - | - | - | - |
| 1777906927 | 27.22° C | 100% | 1012.9 hPa | - | - | - | - |
| 1777906327 | 26.67° C | 100% | 1013 hPa | - | - | - | - |
| 1777901384 | 25° C | 100% | 1013.8 hPa | - | - | - | - |
| 1777894952 | 24.44° C | 100% | 1014.9 hPa | - | - | - | - |
| 1777892552 | 23.33° C | 100% | 1015.2 hPa | - | - | - | - |
| 1777889552 | 20° C | 100% | 1015.7 hPa | - | - | - | - |
| 1777885952 | 18.89° C | 100% | 1015.8 hPa | - | - | - | - |
| 1777884608 | 18.33° C | 100% | 1015.9 hPa | - | - | - | - |
| 1777884008 | 18.33° C | 100% | 1015.8 hPa | - | - | - | - |
| 1777883408 | 17.78° C | 100% | 1015.8 hPa | - | - | - | - |
| 1777882064 | 16.67° C | 100% | 1015.6 hPa | - | - | - | - |
| 1777880864 | 16.11° C | 100% | 1015.5 hPa | - | - | - | - |
| 1777880264 | 16.11° C | 100% | 1015.6 hPa | - | - | - | - |
| 1777879664 | 15.56° C | 100% | 1015.5 hPa | - | - | - | - |
| 1777876521 | 14.44° C | 100% | 1015.1 hPa | - | - | - | - |
| 1777872177 | 12.22° C | 100% | 1015.1 hPa | - | - | - | - |
| 1777868432 | 8.33° C | 100% | 1014.8 hPa | - | - | - | - |
| 1777867232 | 8.33° C | 100% | 1015 hPa | - | - | - | - |
| 1777866033 | 10° C | 100% | 1014.9 hPa | - | - | - | - |
| 1777858689 | 11.67° C | 100% | 1014.9 hPa | - | - | - | - |
| 1777853602 | 12.78° C | 100% | 1015 hPa | - | - | - | - |
* Rain since midnight (hover to see other rain measurements)
** Current wind speed in m/s (hover to see current wind gust speed)